LEHMAN Weather Reports


time (UTC)temp
C
wind
direction
speed
KPH
gust
KPH
rain 1hr
cm
rain 24hr
cm
rain mn
cm
humidity
%
barometer
mb
20260902144003 7 150 0.0 3.2 0.00 0.00 0.00 82 1012.9
20260902143504 7 150 0.0 3.2 0.00 0.00 0.00 79 1012.9
20260902143010 6 111 0.0 3.2 0.00 0.00 0.00 84 1012.8
20260902142504 7 119 0.0 4.8 0.00 0.00 0.00 86 1012.8
20260902142008 6 119 1.6 4.8 0.00 0.00 0.00 83 1012.8
20260902141508 6 129 1.6 4.8 0.00 0.00 0.00 80 1012.8
20260902141006 6 360 1.6 3.2 0.00 0.00 0.00 80 1012.8
20260902140507 7 360 0.0 3.2 0.00 0.00 0.00 83 1012.7
20260902140022 7 360 0.0 3.2 0.00 0.00 0.00 83 1012.8
20260902135504 7 360 0.0 3.2 0.00 0.00 0.00 80 1012.8
20260902135006 8 360 0.0 3.2 0.00 0.00 0.00 84 1012.6
20260902134506 7 360 0.0 3.2 0.00 0.00 0.00 80 1012.8
20260902134011 7 200 0.0 3.2 0.00 0.00 0.00 83 1012.7
20260902133506 8 200 0.0 3.2 0.00 0.00 0.00 79 1012.7
20260902133007 7 360 0.0 6.4 0.00 0.00 0.00 79 1012.7
20260902132503 8 360 0.0 6.4 0.00 0.00 0.00 77 1012.6
20260902132003 8 200 0.0 6.4 0.00 0.00 0.00 76 1012.7
20260902131512 8 190 1.6 4.8 0.00 0.00 0.00 76 1012.7
20260902131007 8 157 1.6 4.8 0.00 0.00 0.00 76 1012.6
20260902130507 8 180 1.6 4.8 0.00 0.00 0.00 77 1012.5
20260902130004 8 191 0.0 6.4 0.00 0.00 0.00 76 1012.5
20260902125508 8 192 0.0 6.4 0.00 0.00 0.00 75 1012.5
20260902125012 8 186 1.6 8.0 0.00 0.00 0.00 74 1012.5
20260902124504 8 195 3.2 8.0 0.00 0.00 0.00 75 1012.4
20260902124003 8 182 0.0 9.7 0.00 0.00 0.00 75 1012.2
20260902123508 8 360 1.6 9.7 0.00 0.00 0.00 74 1012.1
20260902123029 8 167 1.6 4.8 0.00 0.00 0.00 75 1012.1
20260902122504 8 151 0.0 3.2 0.00 0.00 0.00 76 1012.2
20260902122003 8 121 0.0 3.2 0.00 0.00 0.00 76 1012.1
20260902121506 8 105 1.6 3.2 0.00 0.00 0.00 74 1011.9
20260902121009 9 182 0.0 4.8 0.00 0.00 0.00 81 1011.9
20260902120507 8 182 0.0 4.8 0.00 0.00 0.00 80 1011.9
20260902120016 8 179 0.0 3.2 0.00 0.00 0.00 75 1012.0
20260902115509 8 179 0.0 3.2 0.00 0.00 0.00 76 1012.1
20260902115006 8 179 0.0 6.4 0.00 0.00 0.00 77 1012.2
20260902114517 8 196 0.0 6.4 0.00 0.00 0.00 74 1012.2
20260902114016 8 179 0.0 6.4 0.00 0.00 0.00 75 1012.3
20260902113513 8 188 1.6 6.4 0.00 0.00 0.00 74 1012.3
20260902113012 8 126 0.0 3.2 0.00 0.00 0.00 78 1011.9
20260902112509 8 169 0.0 4.8 0.00 0.00 0.00 76 1011.9
20260902112020 8 105 0.0 4.8 0.00 0.00 0.00 74 1011.7
20260902111508 8 360 0.0 3.2 0.00 0.00 0.00 71 1011.6
20260902111004 8 360 0.0 1.6 0.00 0.00 0.00 75 1011.9
20260902110507 8 360 0.0 3.2 0.00 0.00 0.00 77 1011.9
20260902110018 8 360 0.0 3.2 0.00 0.00 0.00 73 1011.9
20260902105506 8 150 0.0 1.6 0.00 0.00 0.00 72 1011.8
20260902105006 9 148 0.0 1.6 0.00 0.00 0.00 77 1012.0
20260902104503 9 148 0.0 3.2 0.00 0.00 0.00 79 1012.2
20260902104003 8 148 0.0 3.2 0.00 0.00 0.00 76 1012.5
20260902103502 8 99 0.0 3.2 0.00 0.00 0.00 70 1012.7
20260902103005 9 99 0.0 3.2 0.00 0.00 0.00 72 1012.7
20260902102504 9 111 0.0 1.6 0.00 0.00 0.00 73 1012.7
20260902102004 9 111 0.0 1.6 0.00 0.00 0.00 71 1012.9
20260902101504 9 185 0.0 1.6 0.00 0.00 0.00 75 1012.9
20260902101003 8 185 0.0 1.6 0.00 0.00 0.00 72 1012.8
20260902100504 9 185 0.0 1.6 0.00 0.00 0.00 74 1012.6
20260902100003 9 185 0.0 1.6 0.00 0.00 0.00 75 1012.5
20260902095503 9 360 0.0 1.6 0.00 0.00 0.00 71 1012.4
20260902095003 9 360 0.0 1.6 0.00 0.00 0.00 73 1012.2
20260902094505 9 360 0.0 1.6 0.00 0.00 0.00 74 1012.3
20260902094004 9 360 0.0 3.2 0.00 0.00 0.00 76 1012.2
20260902093506 8 360 0.0 3.2 0.00 0.00 0.00 74 1012.2
20260902093004 8 360 0.0 1.6 0.00 0.00 0.00 68 1012.1
20260902092502 9 360 0.0 3.2 0.00 0.00 0.00 75 1012.0
20260902092004 9 360 0.0 4.8 0.00 0.00 0.00 70 1012.0
20260902090503 9 360 0.0 3.2 0.00 0.00 0.00 77 1012.3
20260902084004 10 360 0.0 3.2 0.00 0.00 0.00 73 1012.1
20260902083503 9 360 0.0 4.8 0.00 0.00 0.00 78 1012.5
20260902083004 8 360 1.6 4.8 0.00 0.00 0.00 77 1012.4
20260902082504 8 360 1.6 4.8 0.00 0.00 0.00 72 1012.4
20260902082004 8 360 0.0 3.2 0.00 0.00 0.00 73 1012.3
20260902081503 8 360 0.0 4.8 0.00 0.00 0.00 71 1012.4
20260902081004 8 360 0.0 4.8 0.00 0.00 0.00 70 1012.4
20260902075504 9 360 0.0 4.8 0.00 0.00 0.00 71 1012.5
20260902075008 9 189 0.0 6.4 0.00 0.00 0.00 70 1012.5
20260902074504 8 360 0.0 6.4 0.00 0.00 0.00 71 1012.7
20260902074003 8 360 0.0 4.8 0.00 0.00 0.00 71 1012.7
20260902073503 9 360 0.0 4.8 0.00 0.00 0.00 67 1012.6
20260902073004 10 154 0.0 3.2 0.00 0.00 0.00 71 1012.4
20260902072504 10 153 0.0 3.2 0.00 0.00 0.00 79 1012.5
20260902072004 9 175 0.0 9.7 0.00 0.00 0.00 69 1012.6
20260902071508 8 153 1.6 9.7 0.00 0.00 0.00 69 1012.7
20260902071003 8 360 1.6 4.8 0.00 0.00 0.00 68 1012.5
20260902070504 8 360 0.0 4.8 0.00 0.00 0.00 69 1012.6
20260902070009 8 360 1.6 4.8 0.00 0.00 0.00 67 1012.6
20260902065505 10 360 0.0 4.8 0.00 0.00 0.00 72 1012.5
20260902065005 9 360 0.0 3.2 0.00 0.00 0.00 65 1012.4
20260902064508 9 360 1.6 4.8 0.00 0.00 0.00 68 1012.3
20260902064003 10 360 0.0 6.4 0.00 0.00 0.00 75 1012.2
20260902063504 9 360 1.6 6.4 0.00 0.00 0.00 73 1012.1
20260902063008 10 360 0.0 3.2 0.00 0.00 0.00 78 1012.2
20260902062504 8 360 0.0 4.8 0.00 0.00 0.00 70 1012.2
20260902062004 8 360 1.6 4.8 0.00 0.00 0.00 69 1012.2
20260902061505 8 360 1.6 6.4 0.00 0.00 0.00 70 1012.2
20260902061004 8 360 3.2 6.4 0.00 0.00 0.00 70 1012.2
20260902060507 8 360 3.2 4.8 0.00 0.00 0.00 71 1012.2
20260902060009 9 360 1.6 4.8 0.00 0.00 0.00 67 1012.2
20260902055508 9 360 0.0 4.8 0.00 0.00 0.00 69 1012.1
20260902055004 8 360 1.6 4.8 0.00 0.00 0.00 67 1012.2
20260902054506 8 360 1.6 6.4 0.00 0.00 0.00 69 1012.2
20260902054003 8 159 1.6 6.4 0.00 0.00 0.00 69 1012.4
20260902053502 9 192 1.6 4.8 0.00 0.00 0.00 65 1012.4
20260902053010 10 155 0.0 4.8 0.00 0.00 0.00 68 1012.5
20260902052507 10 142 1.6 4.8 0.00 0.00 0.00 64 1012.5
20260902052007 10 154 0.0 3.2 0.00 0.00 0.00 68 1012.5
20260902051509 10 360 0.0 6.4 0.00 0.00 0.00 68 1012.5
20260902051004 10 360 0.0 6.4 0.00 0.00 0.00 63 1012.5
20260902050041 10 360 1.6 6.4 0.00 0.00 0.00 63 1012.4
20260902045510 10 360 1.6 4.8 0.00 0.00 0.00 62 1012.3
20260902045004 11 360 0.0 4.8 0.00 0.00 0.00 61 1012.2
20260902044510 10 360 1.6 6.4 0.00 0.00 0.00 64 1012.1
20260902044003 10 360 3.2 6.4 0.00 0.00 0.00 64 1012.0
20260902043502 10 161 1.6 4.8 0.00 0.00 0.00 60 1012.0
20260902043013 11 131 0.0 3.2 0.00 0.00 0.00 65 1012.0
20260902042502 11 360 0.0 4.8 0.00 0.00 0.00 61 1011.9
20260902042004 11 360 1.6 4.8 0.00 0.00 0.00 59 1011.9
20260902041512 11 360 1.6 4.8 0.00 0.00 0.00 60 1011.9
20260902041006 11 360 0.0 4.8 0.00 0.00 0.00 59 1011.9
20260902040507 11 360 0.0 6.4 0.00 0.00 0.00 62 1011.9
20260902040007 11 360 1.6 6.4 0.00 0.00 0.00 61 1011.8
20260902035505 11 360 1.6 6.4 0.00 0.00 0.00 60 1011.9
20260902035010 12 360 1.6 6.4 0.00 0.00 0.00 61 1011.9
20260902034505 12 360 1.6 6.4 0.00 0.00 0.00 60 1011.8
20260902034003 12 360 0.0 6.4 0.00 0.00 0.00 59 1011.7
20260902033507 12 360 3.2 6.4 0.00 0.00 0.00 61 1011.6
20260902033004 12 360 0.0 4.8 0.00 0.00 0.00 60 1011.5
20260902032505 12 360 0.0 4.8 0.00 0.00 0.00 58 1011.4
20260902032006 12 142 1.6 4.8 0.00 0.00 0.00 58 1011.4
20260902031508 13 149 1.6 4.8 0.00 0.00 0.00 59 1011.3
20260902031007 13 166 0.0 6.4 0.00 0.00 0.00 59 1011.3
20260902030507 13 140 1.6 6.4 0.00 0.00 0.00 56 1011.2
20260902030012 14 167 1.6 6.4 0.00 0.00 0.00 56 1011.0
20260902025509 14 134 3.2 6.4 0.00 0.00 0.00 55 1010.9
20260902025003 15 117 0.0 3.2 0.00 0.00 0.00 58 1011.0
20260902024511 15 117 0.0 4.8 0.00 0.00 0.00 56 1011.0
20260902024010 15 264 1.6 4.8 0.00 0.00 0.00 50 1011.0
20260902023512 15 28 0.0 1.6 0.00 0.00 0.00 50 1011.0
20260902023007 16 28 0.0 3.2 0.00 0.00 0.00 54 1010.9
20260902022508 17 28 0.0 3.2 0.00 0.00 0.00 49 1010.9
20260902022012 17 28 0.0 4.8 0.00 0.00 0.00 50 1010.9
20260902021507 17 162 0.0 4.8 0.00 0.00 0.00 51 1011.1
20260902021007 17 116 1.6 4.8 0.00 0.00 0.00 48 1011.0
20260902020504 17 189 0.0 3.2 0.00 0.00 0.00 45 1010.9
20260902020009 18 169 0.0 3.2 0.00 0.00 0.00 52 1011.0
20260902015504 18 169 0.0 12.9 0.00 0.00 0.00 51 1011.0
20260902015007 18 230 0.0 12.9 0.00 0.00 0.00 47 1010.9
20260902014513 18 352 1.6 12.9 0.00 0.00 0.00 54 1010.9
20260902014003 18 336 1.6 6.4 0.00 0.00 0.00 51 1010.9
20260902013508 18 249 3.2 4.8 0.00 0.00 0.00 49 1010.9
20260902013021 18 263 0.0 6.4 0.00 0.00 0.00 48 1010.9
20260902012510 18 263 0.0 6.4 0.00 0.00 0.00 51 1010.9
20260902012004 19 269 1.6 9.7 0.00 0.00 0.00 47 1010.9
20260902011521 18 230 3.2 9.7 0.00 0.00 0.00 45 1010.8
20260902011015 19 351 1.6 14.5 0.00 0.00 0.00 44 1010.7
20260902010513 19 71 4.8 14.5 0.00 0.00 0.00 46 1010.5
20260902010010 19 107 1.6 11.3 0.00 0.00 0.00 43 1010.5
20260902005504 20 214 3.2 11.3 0.00 0.00 0.00 44 1010.5
20260902005005 20 194 3.2 14.5 0.00 0.00 0.00 51 1010.3
20260902004512 20 229 0.0 14.5 0.00 0.00 0.00 49 1010.3
20260902004005 20 360 1.6 9.7 0.00 0.00 0.00 40 1010.1
20260902003510 20 344 3.2 11.3 0.00 0.00 0.00 40 1010.1
20260902003028 21 317 3.2 12.9 0.00 0.00 0.00 40 1010.1
20260902002505 21 263 4.8 12.9 0.00 0.00 0.00 44 1009.9
20260902002013 21 276 3.2 12.9 0.00 0.00 0.00 39 1010.0
20260902001525 21 350 1.6 12.9 0.00 0.00 0.00 36 1009.9
20260902001006 22 219 4.8 14.5 0.00 0.00 0.00 40 1009.9
20260902000514 22 308 1.6 14.5 0.00 0.00 0.00 35 1009.8
20260902000025 22 240 4.8 17.7 0.00 0.00 0.00 37 1009.9
20260901235515 22 343 8.0 17.7 0.00 0.00 0.00 33 1009.7
20260901235005 23 298 1.6 11.3 0.00 0.00 0.00 32 1009.6
20260901234524 23 288 1.6 16.1 0.00 0.00 0.00 34 1009.7
20260901234004 23 287 1.6 16.1 0.00 0.00 0.00 37 1009.7
20260901233507 23 258 3.2 12.9 0.00 0.00 0.00 28 1009.6
20260901233015 24 153 4.8 17.7 0.00 0.00 0.00 23 1009.6
20260901232516 24 258 1.6 17.7 0.00 0.00 0.00 22 1009.7
20260901232011 25 194 4.8 17.7 0.00 0.00 0.00 19 1009.7
20260901231522 25 232 1.6 12.9 0.00 0.00 0.00 20 1009.7
20260901231009 25 232 4.8 19.3 0.00 0.00 0.00 19 1009.7
20260901230516 25 196 6.4 19.3 0.00 0.00 0.00 18 1009.8
20260901230025 25 101 3.2 12.9 0.00 0.00 0.00 25 1009.7
20260901225511 25 301 1.6 12.9 0.00 0.00 0.00 22 1009.8
20260901225013 25 141 6.4 14.5 0.00 0.00 0.00 23 1009.9
20260901224535 25 121 0.0 14.5 0.00 0.00 0.00 23 1009.9
20260901224006 25 267 3.2 14.5 0.00 0.00 0.00 22 1009.9
20260901223502 25 34 4.8 14.5 0.00 0.00 0.00 23 1010.0
20260901223004 25 119 4.8 16.1 0.00 0.00 0.00 23 1010.0
20260901222504 25 13 3.2 16.1 0.00 0.00 0.00 25 1010.0
20260901222006 25 5 4.8 16.1 0.00 0.00 0.00 26 1010.1
20260901221504 25 205 1.6 8.0 0.00 0.00 0.00 27 1010.0
20260901221003 23 98 3.2 8.0 0.00 0.00 0.00 29 1010.1
20260901220505 23 163 1.6 6.4 0.00 0.00 0.00 30 1010.0
20260901220003 23 285 3.2 6.4 0.00 0.00 0.00 32 1010.2
20260901215504 23 313 1.6 9.7 0.00 0.00 0.00 36 1010.2
20260901215005 24 24 3.2 9.7 0.00 0.00 0.00 26 1010.3
20260901214506 24 63 1.6 20.9 0.00 0.00 0.00 26 1010.4
20260901214003 24 182 6.4 20.9 0.00 0.00 0.00 28 1010.5
20260901213504 23 26 1.6 14.5 0.00 0.00 0.00 27 1010.3
20260901213010 24 213 4.8 19.3 0.00 0.00 0.00 27 1010.6
20260901212507 23 135 4.8 19.3 0.00 0.00 0.00 27 1010.8
20260901212003 24 148 9.7 19.3 0.00 0.00 0.00 27 1010.8
20260901211508 25 122 6.4 25.7 0.00 0.00 0.00 27 1010.7
20260901211010 24 200 3.2 25.7 0.00 0.00 0.00 30 1010.8
20260901210504 23 104 1.6 17.7 0.00 0.00 0.00 32 1011.0
20260901210007 23 96 4.8 17.7 0.00 0.00 0.00 29 1011.1
20260901205507 23 162 6.4 14.5 0.00 0.00 0.00 29 1011.2
20260901205005 23 55 3.2 22.5 0.00 0.00 0.00 31 1011.1
20260901204504 23 188 4.8 22.5 0.00 0.00 0.00 30 1011.1
20260901204003 23 190 4.8 19.3 0.00 0.00 0.00 32 1011.2
20260901203503 23 126 6.4 19.3 0.00 0.00 0.00 31 1011.2
20260901203004 22 76 3.2 19.3 0.00 0.00 0.00 30 1011.1
20260901202504 22 195 4.8 19.3 0.00 0.00 0.00 32 1011.2
20260901202007 22 236 3.2 17.7 0.00 0.00 0.00 29 1011.2
20260901201511 23 84 3.2 17.7 0.00 0.00 0.00 31 1011.3
20260901201007 23 232 3.2 16.1 0.00 0.00 0.00 31 1011.5
20260901200505 22 78 1.6 11.3 0.00 0.00 0.00 35 1011.6
20260901200018 22 187 4.8 11.3 0.00 0.00 0.00 29 1011.6
20260901195005 22 49 3.2 20.9 0.00 0.00 0.00 32 1011.4
20260901194514 23 225 3.2 12.9 0.00 0.00 0.00 30 1011.4
20260901192503 22 97 4.8 12.9 0.00 0.00 0.00 35 1011.7
20260901192016 22 114 1.6 8.0 0.00 0.00 0.00 36 1011.7
20260901184538 18 223 1.6 8.0 0.00 0.00 0.00 36 1011.9
20260901184007 18 315 1.6 4.8 0.00 0.00 0.00 38 1011.9
20260901183511 17 327 0.0 4.8 0.00 0.00 0.00 40 1012.1
20260901182516 17 148 1.6 6.4 0.00 0.00 0.00 42 1012.6
20260901182006 16 320 1.6 6.4 0.00 0.00 0.00 42 1012.7
20260901181007 16 260 0.0 6.4 0.00 0.00 0.00 56 1012.8
20260901180507 15 360 0.0 6.4 0.00 0.00 0.00 47 1013.0
20260901180012 15 348 0.0 6.4 0.00 0.00 0.00 47 1013.2
20260901175512 15 360 0.0 3.2 0.00 0.00 0.00 44 1013.3
20260901175007 15 360 0.0 1.6 0.00 0.00 0.00 52 1013.3
20260901174011 15 360 0.0 1.6 0.00 0.00 0.00 52 1013.1
20260901173509 15 360 0.0 1.6 0.00 0.00 0.00 47 1013.0
20260901173026 14 360 0.0 1.6 0.00 0.00 0.00 56 1013.0
20260901172510 14 360 0.0 3.2 0.00 0.00 0.00 54 1013.0
20260901172016 14 68 0.0 3.2 0.00 0.00 0.00 54 1012.8
20260901171536 13 61 1.6 3.2 0.00 0.00 0.00 45 1012.8
20260901171007 14 345 0.0 3.2 0.00 0.00 0.00 56 1012.9
20260901170512 13 345 0.0 3.2 0.00 0.00 0.00 58 1012.9
20260901170010 13 20 0.0 3.2 0.00 0.00 0.00 47 1012.9
20260901165508 13 20 0.0 4.8 0.00 0.00 0.00 57 1012.8
20260901165008 13 22 0.0 6.4 0.00 0.00 0.00 45 1012.8
20260901164514 13 28 3.2 6.4 0.00 0.00 0.00 46 1012.9
20260901164008 13 63 0.0 4.8 0.00 0.00 0.00 50 1013.0
20260901163502 13 360 0.0 4.8 0.00 0.00 0.00 46 1012.9
20260901163005 13 32 1.6 4.8 0.00 0.00 0.00 51 1012.9
20260901162004 13 260 0.0 3.2 0.00 0.00 0.00 52 1012.8
20260901161507 13 271 0.0 3.2 0.00 0.00 0.00 49 1012.7
20260901160505 12 191 0.0 1.6 0.00 0.00 0.00 66 1012.6
20260901160011 12 191 0.0 4.8 0.00 0.00 0.00 57 1012.4
20260901155503 12 360 0.0 4.8 0.00 0.00 0.00 50 1012.4
20260901155003 12 360 0.0 3.2 0.00 0.00 0.00 56 1012.3
20260901154508 12 360 0.0 3.2 0.00 0.00 0.00 51 1012.3
20260901154008 12 360 1.6 3.2 0.00 0.00 0.00 67 1012.4
20260901153503 12 360 0.0 3.2 0.00 0.00 0.00 64 1012.4
20260901153007 11 360 0.0 12.9 0.00 0.00 0.00 53 1012.4
20260901152502 10 360 1.6 12.9 0.00 0.00 0.00 57 1012.6
20260901152006 10 360 1.6 12.9 0.00 0.00 0.00 58 1012.1
20260901151506 10 167 0.0 12.9 0.00 0.00 0.00 56 1012.4
20260901151003 10 360 1.6 4.8 0.00 0.00 0.00 55 1012.5
20260901150506 10 180 0.0 1.6 0.00 0.00 0.00 67 1012.5
20260901150010 10 179 0.0 1.6 0.00 0.00 0.00 56 1012.7
20260901145504 10 180 0.0 1.6 0.00 0.00 0.00 67 1012.6
20260901145004 10 180 0.0 1.6 0.00 0.00 0.00 69 1012.6
20260901144510 10 360 0.0 1.6 0.00 0.00 0.00 63 1012.7